Regional Weather Roundup
Issued by NWS State College, PA

Home | Current Version | Previous Version | Text Only | Print | Product List | Glossary On
Versions: 1 2 3 4 5 6 7 8 9 10 11 12 13 14 15 16 17 18 19 20 21 22 23 24 25 26 27 28 29 30 31 32 33 34 35 36 37 38 39 40 41 42 43 44 45 46 47 48 49 50
000
ASUS41 KCTP 211103
RWRCTP

REGIONAL WEATHER ROUNDUP
NATIONAL WEATHER SERVICE STATE COLLEGE PA
700 AM EDT MON APR 21 2014

Note: "fair" indicates few or no clouds below 12,000 feet with no
significant weather and/or obstructions to visibility.

* = STATION THAT DOES NOT REPORT PRECIPITATION /E.G. RAIN...SNOW...ETC/
    THUNDER OR FOG.

PAZ002>004-007>009-013>016-020>023-029>032-211200-
WESTERN PENNSYLVANIA

CITY           SKY/WX    TMP DP  RH WIND       PRES   REMARKS
ERIE           CLEAR     53  30  41 S15       30.06S
MEADVILLE      CLEAR     47  30  51 CALM      30.09S
FRANKLIN*      CLEAR     43  28  56 E6        30.13S
NEW CASTLE     FAIR      44  30  58 CALM      30.11S
BEAVER COUNTY  CLEAR     48  30  49 SE3       30.11
BUTLER*        CLEAR     43  28  56 E3        30.13S
PITTSBURGH INT PTCLDY    47  31  53 CALM      30.11R
PITTSBURGH     CLEAR     47  31  53 SE6       30.10S
INDIANA*       CLEAR     43  32  65 CALM      30.13S
LATROBE        CLEAR     41  32  70 CALM      30.13R
WASHINGTON CO* CLEAR     36  30  80 CALM      30.12S
$$

PAZ004>006-010>012-017>019-024>028-033>037-041-042-045-046-049>053-211200-
CENTRAL PENNSYLVANIA

CITY           SKY/WX    TMP DP  RH WIND       PRES   REMARKS
BRADFORD       PTCLDY    40  29  64 SE5       30.13S
DUBOIS         CLEAR     42  32  67 E6        30.12S
CLEARFIELD     CLEAR     35  31  85 N3        30.16S
JOHNSTOWN      CLEAR     41  30  65 SW6       30.13F
ALTOONA        CLEAR     41  35  79 S6        30.17S
STATE COLLEGE  CLEAR     43  30  61 CALM      30.17F
WILLIAMSPORT   CLEAR     39  30  70 SE3       30.19F
SELINSGROVE    CLEAR     37  32  82 CALM      30.22S
FT INDIANTOWN  PTCLDY    32  32 100 CALM      30.23
CAPITAL CITY   CLEAR     37  31  78 CALM      30.23S
HARRISBURG     PTCLDY    41  30  65 CALM      30.23R
YORK           CLEAR     32  29  88 CALM      30.22S
$$

PAZ038>040-043-044-047-048-054-055-060>062-067>071-211200-
EASTERN PENNSYLVANIA

CITY           SKY/WX    TMP DP  RH WIND       PRES   REMARKS
SCRANTON       CLEAR     37  24  59 S6        30.20R
MOUNT POCONO   CLEAR     31  25  78 CALM      30.18R
ALLENTOWN      CLEAR     32  27  81 NW3       30.23S
QUAKERTOWN*    SUNNY     30  28  93 CALM      30.23S
READING        CLEAR     35  29  78 CALM      30.23R
LANCASTER      CLEAR     34  27  75 CALM      30.23R
COATESVILLE    SUNNY     37  19  48 N5        30.23R
POTTSTOWN      CLEAR     32  28  85 CALM      30.25R
BLUE BELL      CLEAR     34  32  93 CALM      30.23R
DOYLESTOWN     CLEAR     33  27  78 CALM      30.22S
WILLOW GROVE   NOT AVBL
NORTH PHILA    CLEAR     38  25  59 N3        30.25S
PHILADELPHIA   PTCLDY    42  26  53 VRB6      30.23F
$$



USA.gov is the U.S. government's official web portal to all federal, state and local government web resources and services.